Regional Weather Roundup
Issued by NWS

Home | Current Version | Previous Version | Graphics & Text | Print | Product List | Glossary On
Versions: 1 2 3 4 5 6 7 8 9 10 11 12 13 14 15 16 17 18 19 20 21 22 23 24 25 26 27 28 29 30 31 32 33 34 35 36 37 38 39 40 41 42 43 44 45 46 47 48 49 50
000
ASUS45 KTFX 220710
RWRMT
MONTANA REGIONAL WEATHER ROUNDUP
NATIONAL WEATHER SERVICE GREAT FALLS MT
1200 AM MST WED FEB 22 2017

NOTE: "FAIR" INDICATES FEW OR NO CLOUDS BELOW 12000 FEET WITH NO
SIGNIFICANT WEATHER AND/OR OBSTRUCTIONS TO VISIBILITY.

MTZ001>007-043-220800-
WEST OF THE DIVIDE

CITY           SKY/WX    TMP DP  RH WIND       PRES   REMARKS
KALISPELL      CLOUDY    33  32  96 S5        29.84R
MISSOULA       CLOUDY    36  32  85 CALM      29.89R
BUTTE          CLOUDY    32  22  66 NW7       29.81R WCI  26
MULLAN PASS    LGT SNOW  23  22  96 SW3       29.82S VSB 3/4
ANACONDA         N/A     34  19  55 SW6       29.82R WCI  29
DEER LODGE       N/A     34  27  75 N5        29.83S
EUREKA           N/A     30  30 100 E5        29.86R VSB 1/2
HAMILTON         N/A     37  25  60 E6        29.88R
LIBBY            N/A     32  32 100 CALM      29.87R VSB 3/4
PLAINS           N/A     32  27  82 CALM      29.90R
RONAN            N/A     35  33  92 E3        29.91R
$$

MTZ008-052>055-220800-
SOUTHWEST MONTANA

CITY           SKY/WX    TMP DP  RH WIND       PRES   REMARKS
BOZEMAN        CLOUDY    38  21  50 W5        29.81R
DILLON         CLOUDY    35  17  47 SW16      29.83R WCI  25
W YELLOWSTONE  CLOUDY    27  25  93 SW5       29.86F
ENNIS          CLOUDY    36  12  38 SE10      29.88R WCI  28
$$

MTZ009-010-012-014-046-048-049-054-220800-
EAST SLOPES AND CENTRAL MONTANA

CITY           SKY/WX    TMP DP  RH WIND       PRES   REMARKS
CUT BANK       CLOUDY    29  29 100 SW5       29.75R
GREAT FALLS    CLOUDY    32  31  96 NW7       29.76R WCI  26
MALMSTROM AFB  FLURRIES  32  33 100 NW7       29.77R WCI  26
HELENA         CLOUDY    40  25  55 W18G33    29.78R
AUGUSTA        MOCLDY    29  30 100 NW5       29.76R
BOWMANS CRNR   LGT SNOW  30  30 100 NW5       29.75R VSB 3/4
CHOTEAU          N/A     30  30 100 W3        29.79R
CONRAD           N/A     32  32 100 MISG      29.80S
POWER          FOG       31  31 100 N9        29.75R VSB 7/8 WCI  23
RAYNESFORD     LGT SNOW  32  32  99 W10       29.74R FOG     WCI  24
ULM            LGT SNOW  32  32 100 MISG      29.77R VSB 7/8
$$

MTZ011-013-016-021-045-047-050-051-220800-
NORTH CENTRAL MONTANA

CITY           SKY/WX    TMP DP  RH WIND       PRES   REMARKS
HAVRE          CLOUDY    34  33  96 E9        29.76R FOG     WCI  27
LEWISTOWN      CLOUDY    37  27  67 W15       29.68R WCI  28
N BAR RANCH    CLOUDY    32  28  86 E3        29.71R
CHINOOK          N/A     34  34 100 CALM      29.77R
DENTON         DRZL/FOG  33  33  99 W20G25    29.67R VSB 1/4 WCI  21
FORT BENTON      N/A     34  34 100 N7        29.77R WCI  28
GEYSER         MOCLDY    36  31  80 NW22G28   29.70R WCI  25
GRASS RANGE      N/A     31  32 100 W5        29.65R FOG
JUDITH GAP     MOCLDY    35  26  69 W13G22    29.70R WCI  26
ROY            LGT RAIN  32  32  99 MISG      29.67R FOG
STANFORD       MOCLDY    35  31  88 N13G21    29.70R WCI  26
WINIFRED       LGT RAIN  33  33 100 W5        29.68R VSB 3/8
$$

MTZ017>020-022>027-061-062-220800-
NORTHEAST MONTANA

CITY           SKY/WX    TMP DP  RH WIND       PRES   REMARKS
GLASGOW        LGT SNOW  33  31  92 NE8       29.73R FOG     WCI  26
JORDAN           N/A     35  33  92 SW8       29.71R WCI  29
SIDNEY         CLOUDY    34  33  96 N7        29.71R FOG     WCI  28
WOLF POINT     LGT SNOW  34  32  92 NE3       29.74R FOG
PLENTYWOOD       N/A     32  30  93 N10       29.74R WCI  24
POPLAR           N/A     34  30  86 N8        29.74R WCI  27
SCOBEY           N/A     30  24  78 N8        29.74R WCI  22
$$

MTZ028>42-056>058-220800-
SOUTHCENTRAL AND SOUTHEAST MONTANA

CITY           SKY/WX    TMP DP  RH WIND       PRES   REMARKS
BAKER          CLOUDY    35  33  92 S3        29.65S
BILLINGS       MOCLDY    41  27  57 SW9       29.72R
LIVINGSTON     CLOUDY    41  16  36 W14       29.76R
MILES CITY     LGT RAIN  38  36  92 N12       29.67S WCI  30
BIG TIMBER     CLEAR     39  19  45 W17G24    29.75S WCI  30
EKALAKA          N/A     41  31  68 CALM      29.67R
FORSYTH          N/A     37  37 100 N5        29.67S
HARLOWTON      MOCLDY    37  26  64 W28G37    29.72R WCI  25
LAUREL           N/A     38  24  57 SW5       29.73R
$$

REGIONAL REPORTS...DAKOTAS

CITY           SKY/WX    TMP DP  RH WIND       PRES   REMARKS
WILLISTON      LGT SNOW  33  32  96 N10       29.71S VSB 1   WCI  25
MINOT          CLOUDY    34  32  92 NW10      29.68R FOG     WCI  26
DICKINSON      CLOUDY    33  31  92 CALM      29.64R
WATFORD CITY   CLOUDY    32  32 100 N9        29.70R FOG     WCI  24
BISMARCK       CLOUDY    32  31  96 E3        29.62F
GRAND FORKS    CLOUDY    33  29  85 NW7       29.68R FOG     WCI  27
FARGO          CLOUDY    33  33 100 NW3       29.64S
BUFFALO SD       N/A     42  36  79 SE7       29.57F
RAPID CITY     LGT RAIN  46  37  71 W28G37    29.74R
$$

REGIONAL REPORTS...WYOMING/IDAHO/WASHINGTON

CITY           SKY/WX    TMP DP  RH WIND       PRES   REMARKS
GILLETTE       CLOUDY    46  28  49 SW23G31   29.69F
SHERIDAN       PTCLDY    45  24  43 SW20      29.71R
BUFFALO WY     CLOUDY    46  21  37 SW16      29.75R
CODY           CLEAR     37  24  59 SW15G25   29.80R WCI  28
YELLOWSTONE LA   N/A     20  18  92 CALM      29.85F
IDAHO FALLS    CLOUDY    33  29  85 S20       29.96R WCI  21
SALMON         CLOUDY    37  21  52 SW8       29.87S WCI  31
BOISE          CLOUDY    41  27  57 CALM      30.05R
SPOKANE        DRIZZLE   32  31  96 S7        29.96R FOG     WCI  26
$$

REGIONAL REPORTS...ALBERTA

CITY           SKY/WX    TMP DP  RH WIND       PRES   REMARKS
EDMONTON       CLOUDY    28  23  80 N5        29.84R
CALGARY        PTCLDY    23  21  93 S3        29.74R FOG
LETHBRIDGE     CLOUDY    32 N/A N/A S7        29.77R WCI  26
MEDICINE HAT   CLOUDY    34  32  93 E7        29.79R WCI  28
CARDSTON         N/A     25  25 100 SE1         N/A
MILK RIVER       N/A     30  30 100 W1          N/A
ONEFOUR          N/A     32  32 100 SE1         N/A
$$

REGIONAL REPORTS...SASKATCHEWAN

CITY           SKY/WX    TMP DP  RH WIND       PRES   REMARKS
SWIFT CURRENT  CLOUDY    30  27  86 SE3       29.78R
REGINA         CLOUDY    30  23  74 N12       29.80R WCI  21
SASKATOON      CLOUDY    30  27  86 SW3       29.81R
VAL MARIE        N/A     30  28  93 NE12        N/A  WCI  21
ROCKGLEN         N/A     28  27  93 N7          N/A  WCI  21
ASSINIBOIA       N/A     28  25  86 N10         N/A  WCI  19
$$



USA.gov is the U.S. government's official web portal to all federal, state and local government web resources and services.